EHI
0 0 0 0 0 0 0 0 0 0 1 4 6 5 4 4 7 14 22 23 23 24 24 22 18 14 9 6 5 7 6 6 7 8 7 6 6 9 13 13 12 11 9 7
0 0 0 0 0 0 0 0 0 1 2 5 7 6 4 3 6 13 21 24 23 22 22 20 17 13 10 7 8 9 9 8 9 11 11 9 8 10 13 13 13 13 11 9
0 0 0 0 0 0 0 0 1 2 4 7 7 6 5 4 5 11 18 21 20 19 18 17 15 13 11 11 11 12 11 11 12 14 14 13 11 12 14 15 15 15 13 11
0 0 0 0 0 0 0 1 3 5 6 7 7 6 5 5 7 12 15 16 15 15 14 14 13 12 12 12 12 12 12 13 15 17 17 17 16 16 18 19 16 14 13 12
0 0 0 0 0 0 0 1 3 6 6 6 5 4 4 5 8 11 13 14 15 14 12 13 13 13 12 12 12 12 12 14 16 19 21 22 21 21 22 22 18 13 13 13
0 0 0 0 0 0 0 0 2 5 6 4 3 4 4 4 6 8 10 13 16 16 15 17 19 20 18 16 15 13 12 12 15 20 23 25 24 23 21 20 18 14 12 11
0 0 0 0 0 0 0 1 2 3 2 2 2 5 5 4 4 5 7 11 15 17 18 20 23 25 23 21 19 17 16 15 17 20 22 21 21 20 17 14 13 11 8 6
0 0 0 0 0 0 1 2 3 1 0 1 2 4 5 4 4 5 7 10 13 16 17 18 20 21 20 19 19 19 19 18 18 18 17 16 15 14 11 8 7 6 5 4
0 0 0 0 0 1 1 1 1 0 0 1 1 2 2 2 3 3 5 7 9 11 11 12 13 13 12 12 13 13 13 13 13 12 11 10 9 8 6 4 4 4 4 4
0 0 0 0 0 0 0 0 0 0 0 0 0 0 1 1 1 1 2 3 4 5 5 4 4 5 5 5 6 6 6 7 7 7 5 5 4 4 3 3 2 3 3 3
0 0 0 0 0 0 0 0 0 0 0 0 0 0 0 0 0 0 0 0 1 1 1 0 0 1 1 1 3 3 4 5 5 4 2 1 1 1 1 1 1 1 2 1
0 0 0 0 0 0 0 0 0 0 0 0 0 0 0 0 0 0 0 0 0 0 0 0 0 0 0 1 2 2 3 3 3 1 1 0 0 0 0 0 0 0 0 0
0 0 0 0 0 0 0 0 0 0 0 0 0 0 0 0 0 0 0 0 0 0 0 0 0 0 0 0 1 1 1 1 1 0 0 0 0 0 0 0 0 0 0 0
0 0 0 0 0 0 0 0 0 0 0 0 0 0 0 0 0 0 0 0 0 0 0 0 0 0 0 0 0 0 0 0 0 0 0 0 0 0 0 0 0 0 0 0
0 0 0 0 0 0 0 0 0 0 0 0 0 0 0 0 0 0 0 0 0 0 0 0 0 0 0 0 0 0 0 0 0 0 0 0 0 0 0 0 0 0 0 0
0 0 0 0 0 0 0 0 0 0 0 0 0 0 0 0 0 0 0 0 0 0 0 0 0 0 0 0 0 0 0 0 0 0 0 0 0 0 0 0 0 0 0 0
0 0 0 0 0 0 0 0 0 0 0 0 0 0 0 0 0 0 0 0 0 0 0 0 0 0 0 0 0 0 0 0 0 0 0 0 0 0 0 0 0 0 0 0
0 0 0 0 0 0 0 0 0 0 0 0 0 0 0 0 0 0 0 0 0 0 0 0 0 0 0 0 0 0 0 0 0 0 0 0 0 0 0 0 0 0 0 0
0 0 0 0 0 0 0 0 0 0 0 0 0 0 0 0 0 0 0 0 0 0 0 0 0 0 0 0 0 0 0 0 0 0 0 0 0 0 0 0 0 0 0 0
0 0 0 0 0 0 0 0 0 0 0 0 0 0 0 0 0 0 0 0 0 0 0 0 0 0 0 0 0 0 0 0 0 0 0 0 0 0 0 0 0 0 0 0
0 0 0 0 0 0 0 0 0 0 0 0 0 0 0 0 0 0 0 0 0 0 0 0 0 0 0 0 0 0 0 0 0 0 0 0 0 0 0 0 0 0 0 0
0 0 0 0 0 0 0 0 0 0 0 0 0 0 0 0 0 0 0 0 0 0 0 0 0 0 0 0 0 0 0 0 0 0 0 0 0 0 0 0 0 0 0 0
0 0 0 0 0 0 0 0 0 0 0 0 0 0 0 0 0 0 0 0 0 0 0 0 0 0 0 0 0 0 0 0 0 0 0 0 0 0 0 0 0 0 0 0
0 0 0 0 0 0 0 0 0 0 0 0 0 0 0 0 0 0 0 0 0 0 0 0 0 0 0 0 0 0 0 0 0 0 0 0 0 0 0 0 0 0 0 0
0 0 0 0 0 0 0 0 0 0 0 0 0 0 0 0 0 0 0 0 0 0 0 0 0 0 0 0 0 0 0 0 0 0 0 0 0 0 0 0 0 0 0 0
0 0 0 0 0 0 0 0 0 0 0 0 0 0 0 0 0 0 0 0 0 0 0 0 0 0 0 0 0 0 0 0 0 0 0 0 0 0 0 0 0 0 0 0
0 0 0 0 0 0 0 0 0 0 0 0 0 0 0 0 0 0 0 0 0 0 0 0 0 0 0 0 0 0 0 0 0 0 0 0 0 0 0 0 0 0 0 0
Wind_Speed
11 9 10 12 12 12 14 15 15 13 11 6 2 1 2 5 7 8 8 8 9 9 8 8 8 8 8 9 9 10 10 10 9 9 8 9 8 8 9 9 10 10 10 10
12 12 13 16 16 17 17 17 17 16 13 4 1 2 3 4 7 8 8 8 8 8 8 8 8 8 8 8 8 8 8 8 8 8 8 8 8 8 8 8 8 9 9 10
12 11 12 17 16 17 17 17 16 16 10 4 3 2 2 4 5 6 7 7 7 8 7 7 7 7 8 8 7 8 7 7 7 7 7 7 7 7 7 7 7 7 7 7
10 9 15 8 4 8 12 14 13 11 6 3 3 3 3 2 4 5 6 6 6 6 6 6 7 7 7 7 7 7 7 6 6 7 7 6 6 6 6 5 5 5 5 5
8 11 12 8 4 6 9 11 8 7 4 5 7 6 4 4 4 5 5 5 5 5 6 6 6 7 8 7 7 6 6 5 5 5 6 6 5 5 4 4 3 4 4 3
8 10 10 3 3 4 7 9 3 5 7 8 8 5 3 6 6 7 7 6 6 6 7 7 7 8 8 7 7 6 5 5 4 4 5 5 4 3 3 3 3 3 2 2
11 11 8 3 4 4 8 2 2 3 5 6 3 4 8 8 8 9 9 9 8 8 8 8 8 9 9 9 8 6 6 6 6 5 5 5 4 3 3 3 3 2 2 2
7 9 5 6 4 4 5 5 2 1 3 6 9 11 11 10 10 10 11 11 11 10 10 9 9 10 11 10 8 8 9 9 8 7 6 6 6 5 4 3 3 3 3 3
5 4 4 5 5 6 6 4 1 3 6 9 11 11 12 11 11 11 12 12 11 12 12 11 11 11 12 10 9 9 10 10 9 9 8 7 6 5 4 3 3 3 2 2
6 5 4 5 5 5 4 1 2 5 8 11 13 14 13 11 11 11 12 11 11 12 13 12 12 12 11 10 9 10 10 9 8 8 8 8 6 5 5 5 4 3 3 3
6 6 5 4 5 4 4 6 8 8 9 12 15 15 14 13 12 11 11 11 11 12 13 13 12 12 11 9 9 10 9 8 7 8 8 7 8 7 7 8 7 5 5 4
4 5 3 4 5 5 7 8 10 11 12 13 14 15 15 13 12 11 11 11 12 13 13 12 12 11 10 9 8 8 7 7 6 6 5 5 6 7 11 8 9 10 9 7
1 3 3 3 5 6 8 10 12 13 14 14 14 15 15 13 12 12 12 12 12 12 12 12 12 12 10 9 9 9 8 7 5 6 5 5 4 4 4 6 7 8 8 8
3 3 4 6 7 9 12 13 14 15 15 14 14 14 14 14 13 13 12 12 12 12 12 12 12 11 9 9 9 8 8 8 6 5 5 5 4 4 3 3 2 3 6 7
3 5 7 9 11 12 12 14 16 15 15 15 14 14 13 13 13 12 11 11 11 12 12 12 12 11 9 9 9 8 7 6 5 5 4 4 4 4 4 4 3 3 3 3
7 9 10 12 12 13 13 15 15 15 14 14 14 14 13 13 12 12 11 10 11 12 10 10 10 9 8 7 7 6 7 8 5 4 4 4 4 4 4 4 4 4 4 5
10 11 11 13 13 13 13 13 14 14 14 14 14 13 13 12 12 11 11 11 10 10 9 9 8 7 7 6 5 4 4 5 2 3 5 5 5 5 5 5 5 4 4 6
10 12 12 13 13 14 14 14 13 14 14 14 13 12 12 11 11 10 10 10 9 9 9 8 7 6 6 6 5 4 4 4 4 5 4 5 5 5 5 4 5 5 4 2
13 14 14 13 13 13 13 13 13 12 12 12 12 12 11 10 10 9 8 8 7 8 7 7 5 5 6 6 4 2 4 4 4 4 4 3 3 4 5 5 5 5 5 6
15 14 14 14 13 13 13 12 12 11 10 11 11 11 10 9 8 7 7 6 6 6 5 5 4 5 5 6 6 3 4 4 4 4 4 4 5 5 5 5 6 6 5 6
15 15 14 13 13 12 12 11 11 11 10 9 9 9 8 7 7 5 5 6 6 5 4 2 2 4 4 4 4 3 4 4 4 4 4 5 5 5 5 5 6 6 6 6
13 13 13 13 12 11 10 10 10 10 10 9 9 8 7 7 6 5 5 5 5 2 0 2 4 6 5 6 2 4 4 4 4 4 4 4 4 4 5 5 6 6 6 6
11 11 12 12 12 11 10 10 10 9 9 8 7 7 6 5 4 3 4 4 4 1 1 5 6 4 7 3 3 4 4 4 4 4 4 4 4 4 4 5 5 5 6 6
11 10 10 10 10 10 10 9 9 8 8 7 7 6 4 3 4 4 5 6 5 3 5 7 4 4 6 2 3 4 4 3 3 4 4 4 4 4 4 4 5 5 5 6
10 10 10 9 8 8 9 8 8 8 7 6 6 5 3 3 4 4 5 6 4 1 5 6 3 3 2 4 4 3 4 5 5 4 4 4 4 4 4 5 5 5 5 6
8 7 7 6 6 5 5 5 5 4 4 5 4 4 4 4 4 4 3 4 4 2 3 4 3 1 3 4 4 4 3 3 2 3 4 4 4 5 5 5 6 5 5 5
8 7 6 5 5 4 4 4 4 4 4 4 4 3 3 4 4 3 3 3 3 3 3 3 3 3 3 3 3 3 3 3 4 4 4 4 4 4 4 5 5 5 5 5
Wind_Direction
270 280 272 264 257 247 247 257 266 270 269 271 227 197 164 165 164 161 159 162 164 162 159 161 162 166 171 173 175 175 176 180 184 186 189 192 194 197 200 205 209 210 213 218
262 261 264 264 259 255 253 255 258 264 268 275 184 150 165 168 166 165 161 161 162 160 158 162 164 167 167 169 171 173 177 180 181 182 184 188 190 193 197 205 212 213 217 220
266 267 268 256 253 254 253 253 256 257 259 209 187 164 155 157 164 166 158 157 157 159 161 164 167 169 169 168 166 168 174 177 176 180 182 187 190 191 195 201 206 210 216 221
268 266 254 262 292 273 268 261 258 261 250 211 151 108 96 127 146 143 143 143 146 152 154 159 158 158 159 158 161 164 166 169 173 177 177 177 181 185 189 191 195 202 212 221
256 254 261 260 268 276 271 265 258 245 194 149 138 124 105 94 107 115 114 114 117 124 129 133 139 144 144 145 146 147 147 151 160 168 164 164 171 171 172 175 187 197 202 213
246 256 257 276 44 330 283 256 215 187 164 164 174 187 131 106 104 102 97 93 95 100 102 107 115 124 125 123 119 118 116 115 116 124 131 136 137 139 143 158 169 175 158 158
248 253 259 10 344 282 249 309 49 148 163 177 187 92 109 112 102 100 97 93 90 88 85 85 95 104 104 101 97 96 99 100 101 104 106 105 105 107 113 117 119 122 121 112
249 249 250 26 323 288 327 350 360 90 121 112 104 107 112 109 106 104 99 95 92 88 83 78 84 94 93 88 89 92 92 89 86 83 86 95 97 95 95 105 120 121 115 103
277 292 352 342 317 310 303 292 312 102 113 119 118 116 113 108 104 101 97 93 92 91 85 77 75 81 85 82 85 88 85 82 80 78 72 72 80 87 93 91 84 86 89 85
270 280 310 328 325 316 300 254 134 122 124 124 121 118 113 108 102 99 95 92 91 89 84 78 74 74 77 81 84 86 84 81 81 78 75 68 57 57 57 52 54 56 51 50
269 286 312 340 351 14 62 90 100 106 115 120 120 117 114 109 103 97 92 89 88 86 84 81 76 72 70 73 79 81 80 78 78 77 74 72 65 47 48 50 35 25 32 37
299 335 331 347 31 69 91 101 109 115 115 116 116 114 111 106 102 99 96 93 90 87 85 82 78 72 67 68 74 78 79 75 74 75 73 75 84 85 63 70 75 66 50 35
346 22 31 47 66 81 94 101 105 109 112 111 109 110 108 105 101 98 95 92 89 87 85 82 78 72 65 63 65 66 67 60 60 62 63 61 63 70 91 100 97 88 81 69
78 81 84 79 88 96 103 105 105 105 105 106 107 107 105 103 100 95 91 90 88 85 82 79 74 67 62 64 65 65 67 65 53 57 53 50 45 39 37 36 65 93 106 99
79 96 106 101 98 101 108 111 109 107 107 106 106 105 104 103 99 96 93 92 89 84 79 76 72 64 57 60 60 57 56 56 50 49 50 49 41 36 36 30 15 15 35 93
108 106 108 108 107 108 110 111 109 109 110 109 107 105 103 101 99 95 92 90 86 81 77 73 68 60 53 55 62 68 66 50 28 35 44 41 31 24 23 17 11 11 9 13
120 117 117 116 114 113 112 111 112 112 111 109 108 109 108 106 102 97 94 89 86 84 78 72 66 60 54 48 43 52 62 72 45 25 38 28 20 14 12 5 3 2 10 38
113 111 112 114 114 113 110 109 109 111 113 114 114 112 110 107 104 103 101 99 96 89 77 70 66 64 59 48 33 26 39 41 34 32 32 25 8 3 2 3 1 358 356 28
112 110 110 109 110 109 109 109 108 109 112 113 112 110 110 109 108 108 107 105 101 93 80 71 55 61 61 44 8 37 32 36 39 34 27 24 350 9 8 4 4 3 356 353
111 110 110 110 110 110 110 111 110 108 109 111 111 111 110 109 109 107 104 92 74 72 80 68 66 60 55 41 343 22 29 25 27 27 17 11 16 15 12 9 8 6 360 357
117 117 115 112 110 109 110 112 113 112 111 111 111 112 112 112 112 111 109 99 88 76 84 96 61 52 43 16 320 17 26 19 18 21 19 20 20 15 13 11 8 6 2 359
117 116 115 113 111 108 107 109 110 110 110 109 110 111 114 114 110 103 90 82 97 83 194 88 65 49 9 321 4 27 25 20 20 26 31 24 19 17 16 13 9 7 6 2
113 115 116 114 113 112 112 110 109 108 107 106 107 108 102 93 96 105 103 90 94 79 51 63 59 31 319 310 26 33 31 28 28 30 35 30 22 19 19 17 11 7 5 0
115 113 113 116 119 118 114 109 106 107 108 107 102 96 98 103 95 83 86 91 74 68 77 79 62 350 305 8 37 37 40 36 30 27 31 34 32 28 23 16 10 11 9 4
115 116 120 126 126 118 117 121 119 120 119 107 105 101 89 76 78 77 86 98 104 121 108 107 105 319 338 47 46 43 45 36 21 16 32 22 21 31 28 20 14 11 10 8
119 118 111 100 96 112 122 122 120 118 112 109 103 95 88 88 92 94 97 103 105 99 97 113 119 146 60 58 53 48 50 61 44 28 29 24 28 32 29 19 17 14 11 11
120 117 118 113 109 104 107 110 111 107 102 103 101 98 94 94 95 94 94 100 111 106 96 93 84 75 72 64 60 56 49 42 34 28 28 29 32 31 31 24 18 13 7 12